Location: Sternwarte ZA, Rosenfeld-Brittheim
(48.2889°N, 8.6789°E)
Time: 15:58:01
(UTC+02:00)

ISS - Pass Details

Date: 20 May 2018
Orbit: 402 x 407 km, 51.6° (Epoch: 23 May)

Event Time Altitude Azimuth Distance (km) Brightness Sun altitude
Rises 03:11:49 0° 289° (WNW) 2,321 -0.1 -17.5°
Reaches altitude 10° 03:13:55 10° 293° (WNW) 1,460 -1.1 -17.3°
Maximum altitude 03:17:09 57° 14° (NNE) 483 -3.2 -17.1°
Drops below altitude 10° 03:20:22 10° 94° (E) 1,456 -0.7 -16.8°
Sets 03:22:28 0° 98° (E) 2,314 0.3 -16.6°
